Durant, OK

9:54 AM CST on December 08, 2019 (GMT -0600)
Eaker

Weather History for KDUA - November, 2019

Change the Weather History Date:

Friday, November 15, 2019

  Actual Average (KMLC) Record (KMLC)
Temperature  
Mean Temperature 49 °F -  
Max Temperature 66 °F 62 °F 85 °F (1955)
Min Temperature 32 °F 40 °F 19 °F (2018)
Degree Days  
Heating Degree Days 16    
Moisture  
Dew Point 28 °F    
Average Humidity 56    
Maximum Humidity 87    
Minimum Humidity 19    
Precipitation  
Precipitation 0.00 in - - ()
Sea Level Pressure  
Sea Level Pressure 30.38 in    
Wind  
Wind Speed 2 mph (NNE)    
Max Wind Speed 6 mph    
Max Gust Speed -    
Visibility 10 miles    
Events      
Averages and records for this station are not official NWS values.
T = Trace of Precipitation, MM = Missing Value Source: NWS Daily Summary

Daily Weather History Graph

Daily Weather History Graph

Search for Another Location

Airport or City:

Astronomy

Nov. 15, 2019 Rise Set
Actual Time 6:57 AM CST 5:22 PM CST
Civil Twilight 6:31 AM CST 5:48 PM CST
Nautical Twilight 6:01 AM CST 6:18 PM CST
Astronomical Twilight 5:31 AM CST 6:48 PM CST
Moon 8:03 PM CST (11/15) 9:50 AM CST (11/15)
Length of Visible Light 11h 17m
Length of Day
10h 24m
Waning Gibbous, 90% of the Moon is Illuminated
Nov 15
Waning Gibbous
Nov 19
Last Quarter
Nov 26
New
Dec 4
First Quarter
Dec 11
Full

Hourly Weather History & Observations

Time (CST) Temp. Windchill Dew Point Humidity Pressure Visibility Wind Dir Wind Speed Gust Speed Precip Events Conditions
12:18 AM 39.2 °F 35.9 °F 32.0 °F 75% 30.42 in 10.0 mi North 4.6 mph - N/A   Clear
12:38 AM 39.2 °F 35.0 °F 30.2 °F 70% 30.41 in 10.0 mi North 5.8 mph - N/A   Clear
1:18 AM 39.2 °F 35.9 °F 30.2 °F 70% 30.42 in 10.0 mi NNW 4.6 mph - N/A   Clear
1:38 AM 39.2 °F 37.0 °F 30.2 °F 70% 30.42 in 10.0 mi NNW 3.5 mph - N/A   Clear
1:58 AM 39.2 °F 35.9 °F 30.2 °F 70% 30.42 in 10.0 mi NNW 4.6 mph - N/A   Clear
2:19 AM 37.4 °F 32.8 °F 30.2 °F 75% 30.42 in 10.0 mi North 5.8 mph - N/A   Clear
2:38 AM 37.4 °F 32.8 °F 30.2 °F 75% 30.42 in 10.0 mi NNW 5.8 mph - N/A   Clear
2:58 AM 37.4 °F 34.9 °F 30.2 °F 75% 30.42 in 10.0 mi NNW 3.5 mph - N/A   Clear
3:58 AM 35.6 °F - 28.4 °F 75% 30.43 in 10.0 mi Calm Calm - N/A   Clear
4:18 AM 33.8 °F - 28.4 °F 81% 30.44 in 10.0 mi Calm Calm - N/A   Clear
4:38 AM 33.8 °F - 28.4 °F 81% 30.44 in 10.0 mi Calm Calm - N/A   Clear
4:58 AM 33.8 °F - 28.4 °F 81% 30.43 in 10.0 mi Calm Calm - N/A   Clear
5:19 AM 32.0 °F - 28.4 °F 87% 30.43 in 10.0 mi Calm Calm - N/A   Clear
5:38 AM 33.8 °F - 28.4 °F 81% 30.43 in 10.0 mi Calm Calm - N/A   Clear
5:58 AM 32.0 °F - 28.4 °F 87% 30.43 in 10.0 mi Calm Calm - N/A   Clear
6:18 AM 33.8 °F - 28.4 °F 81% 30.43 in 10.0 mi Calm Calm - N/A   Clear
6:38 AM 32.0 °F - 28.4 °F 87% 30.43 in 10.0 mi Calm Calm - N/A   Clear
7:38 AM 35.6 °F - 30.2 °F 81% 30.44 in 10.0 mi Calm Calm - N/A   Clear
7:58 AM 37.4 °F - 30.2 °F 75% 30.44 in 10.0 mi Calm Calm - N/A   Clear
8:18 AM 41.0 °F - 33.8 °F 76% 30.45 in 10.0 mi Calm Calm - N/A   Clear
8:38 AM 42.8 °F 41.1 °F 33.8 °F 70% 30.45 in 10.0 mi North 3.5 mph - N/A   Clear
9:18 AM 48.2 °F - 33.8 °F 58% 30.45 in 10.0 mi Calm Calm - N/A   Clear
9:38 AM 51.8 °F - 33.8 °F 50% 30.45 in 10.0 mi Calm Calm - N/A   Clear
9:58 AM 53.6 °F - 30.2 °F 41% 30.45 in 10.0 mi Calm Calm - N/A   Clear
10:18 AM 55.4 °F - 30.2 °F 38% 30.45 in 10.0 mi Calm Calm - N/A   Clear
10:39 AM 55.4 °F - 28.4 °F 36% 30.45 in 10.0 mi NE 4.6 mph - N/A   Clear
10:58 AM 57.2 °F - 26.6 °F 31% 30.45 in 10.0 mi Calm Calm - N/A   Clear
11:17 AM 57.2 °F - 26.6 °F 31% 30.44 in 10.0 mi NE 3.5 mph - N/A   Clear
11:37 AM 60.8 °F - 26.6 °F 27% 30.43 in 10.0 mi NE 3.5 mph - N/A   Clear
11:57 AM 59.0 °F - 26.6 °F 29% 30.42 in 10.0 mi NE 4.6 mph - N/A   Clear
12:17 PM 60.8 °F - 26.6 °F 27% 30.41 in 10.0 mi ENE 5.8 mph - N/A   Clear
12:39 PM 62.6 °F - 26.6 °F 26% 30.40 in 10.0 mi NNE 3.5 mph - N/A   Clear
1:17 PM 64.4 °F - 26.6 °F 24% 30.37 in 10.0 mi Calm Calm - N/A   Clear
1:57 PM 64.4 °F - 24.8 °F 22% 30.35 in 10.0 mi Calm Calm - N/A   Clear
2:17 PM 64.4 °F - 24.8 °F 22% 30.34 in 10.0 mi SE 3.5 mph - N/A   Clear
2:37 PM 64.4 °F - 24.8 °F 22% 30.33 in 10.0 mi Calm Calm - N/A   Clear
2:58 PM 64.4 °F - 24.8 °F 22% 30.33 in 10.0 mi Calm Calm - N/A   Clear
3:17 PM 66.2 °F - 23.0 °F 19% 30.33 in 10.0 mi Calm Calm - N/A   Clear
3:37 PM 64.4 °F - 24.8 °F 22% 30.32 in 10.0 mi NE 3.5 mph - N/A   Clear
3:57 PM 64.4 °F - 24.8 °F 22% 30.32 in 10.0 mi Calm Calm - N/A   Clear
4:37 PM 62.6 °F - 24.8 °F 24% 30.31 in 10.0 mi Calm Calm - N/A   Clear
4:57 PM 60.8 °F - 24.8 °F 25% 30.30 in 10.0 mi Calm Calm - N/A   Clear
5:57 PM 48.2 °F - 28.4 °F 46% 30.31 in 10.0 mi Calm Calm - N/A   Clear
6:19 PM 46.4 °F - 28.4 °F 50% 30.31 in 10.0 mi Calm Calm - N/A   Clear
6:37 PM 44.6 °F - 28.4 °F 53% 30.31 in 10.0 mi Calm Calm - N/A   Clear
7:17 PM 44.6 °F - 28.4 °F 53% 30.31 in 10.0 mi Calm Calm - N/A   Clear
7:37 PM 44.6 °F - 28.4 °F 53% 30.31 in 10.0 mi Calm Calm - N/A   Clear
7:58 PM 42.8 °F - 28.4 °F 57% 30.30 in 10.0 mi Calm Calm - N/A   Clear
8:20 PM 41.0 °F - 30.2 °F 65% 30.30 in 10.0 mi Calm Calm - N/A   Clear
8:38 PM 39.2 °F - 28.4 °F 65% 30.30 in 10.0 mi Calm Calm - N/A   Clear
8:57 PM 41.0 °F - 28.4 °F 61% 30.30 in 10.0 mi Calm Calm - N/A   Clear
9:17 PM 41.0 °F - 28.4 °F 61% 30.30 in 10.0 mi Calm Calm - N/A   Clear
9:38 PM 42.8 °F - 28.4 °F 57% 30.30 in 10.0 mi Calm Calm - N/A   Clear
10:18 PM 37.4 °F - 28.4 °F 70% 30.30 in 10.0 mi Calm Calm - N/A   Clear
10:37 PM 37.4 °F - 28.4 °F 70% 30.30 in 10.0 mi Calm Calm - N/A   Clear
10:58 PM 37.4 °F - 28.4 °F 70% 30.30 in 10.0 mi Calm Calm - N/A   Clear
11:17 PM 35.6 °F - 28.4 °F 75% 30.30 in 10.0 mi Calm Calm - N/A   Clear
11:57 PM 35.6 °F - 28.4 °F 75% 30.30 in 10.0 mi Calm Calm - N/A   Clear